Location: Rounton
(54.4000°N, 1.3500°W)
Time: 14:59:29
(UTC+00:00)

Transit 2A - Pass Details

Date: 09 December 2021
Orbit: 591 x 967 km, 66.7° (Epoch: 21 January)

Event Time Altitude Azimuth Distance (km) Brightness Sun altitude
Rises 00:55:34 0° 246° (WSW) 3,437 - -56.6°
Reaches altitude 10° 00:58:04 10° 252° (WSW) 2,552 - -56.4°
Maximum altitude 01:03:51 48° 326° (NW) 1,214 - -56.1°
Drops below altitude 10° 01:10:01 10° 40° (NE) 2,708 - -55.6°
Exits shadow 01:11:39 - 44° (NE) 3,277 9.7 -55.5°
Sets 01:12:44 0° 46° (NE) 3,666 10.0 -55.4°
